Regional Weather Roundup
Issued by NWS

Home | Current Version | Previous Version | Text Only | Print | Product List | Glossary Off
Versions: 1 2 3 4 5 6 7 8 9 10 11 12 13 14 15 16 17 18 19 20 21 22 23 24 25 26 27 28 29 30 31 32 33 34 35 36 37 38 39 40 41 42 43 44 45 46 47 48 49 50

000
ASUS43 KOAX 291002
RWRNE

WEATHER ROUNDUP FOR NEBRASKA
NATIONAL WEATHER SERVICE OMAHA NE
500 AM CDT WED MAR 29 2017

NOTES: SATELLITE DATA IS BEING USED TO AUGMENT CLOUD COVER ABOVE
       12000 FEET.
       "FAIR" INDICATES FEW OR NO CLOUDS BELOW 12,000 FEET WITH NO
       SIGNIFICANT WEATHER AND/OR OBSTRUCTIONS TO VISIBILITY.

  * THESE STATIONS DO NOT REPORT WEATHER SUCH AS RAIN...SNOW OR FOG.

NEZ001>004-019>022-054>056-291100-
NEBRASKA PANHANDLE

CITY           SKY/WX    TMP DP  RH WIND       PRES   REMARKS
SCOTTSBLUFF    CLOUDY    40  37  89 SW3       30.12S
ALLIANCE       CLOUDY    38  36  92 NW5       30.10R WCI  34
CHADRON        CLOUDY    40  38  93 S3        30.12R
KIMBALL        CLOUDY    37  37 100 N6        30.10S WCI  32
SIDNEY         CLOUDY    37  35  92 N7        30.10S WCI  32
$$

NEZ057>060-069>072-079>082-291100-
SOUTHWEST NEBRASKA

CITY           SKY/WX    TMP DP  RH WIND       PRES   REMARKS
NORTH PLATTE   CLOUDY    44  41  89 N6        30.05R
IMPERIAL       CLOUDY    42  40  92 N14       30.04F
LEXINGTON      DRIZZLE   43  41  93 NE12      30.02S
MCCOOK         LGT RAIN  42  42 100 NE9       30.01F FOG
OGALLALA       LGT RAIN  42  40  92 N7        30.08R
$$

NEZ005>010-023>029-035>040-094-291100-
NORTH CENTRAL NEBRASKA

CITY           SKY/WX    TMP DP  RH WIND       PRES   REMARKS
VALENTINE      LGT RAIN  42  39  89 N5        30.11F
AINSWORTH      DRIZZLE   42  42 100 NE9       30.09F
BROKEN BOW     CLOUDY    44  40  85 N8        30.04R
O`NEILL        DRIZZLE   44  43  97 N7        30.08F
ORD            CLOUDY    45  40  82 NE7       30.03F
THEDFORD       CLOUDY    42  41  97 NE3       30.10R
$$

NEZ041-046>049-061>064-073>077-083>087-291100-
SOUTH CENTRAL NEBRASKA

CITY           SKY/WX    TMP DP  RH WIND       PRES   REMARKS
GRAND ISLAND   LGT RAIN  43  43 100 NE16      30.00F FOG
AURORA         CLOUDY    43  43 100 NE15      29.99F FOG
HASTINGS       LGT RAIN  44  42  93 NE16      29.99S FOG
HEBRON         LGT RAIN  46  45  97 NE17      29.93F
HOLDREGE       DRIZZLE   42  41  96 N14       29.99S
KEARNEY *      CLOUDY    43  39  87 N14       30.01R
YORK           LGT RAIN  45  45 100 NE14      29.99F
$$

NEZ011>018-030>034-042>045-291100-
NORTHEAST NEBRASKA

CITY           SKY/WX    TMP DP  RH WIND       PRES   REMARKS
NORFOLK        CLOUDY    44  41  89 NE9       30.05F
ALBION         LGT RAIN  45  42  88 NE8       30.05S
FREMONT        DRIZZLE   45  45  99 NE9       30.05F
TEKAMAH        LGT RAIN  46  43  89 NE9       30.07F
WAYNE          CLOUDY    44  44  99 NE10      30.07F
$$

NEZ050>053-065>068-078-088>093-291100-
SOUTHEAST NEBRASKA

CITY           SKY/WX    TMP DP  RH WIND       PRES   REMARKS
LINCOLN        LGT RAIN  46  45  96 NE15      30.01F FOG
OMAHA EPPLEY   RAIN      47  42  83 E14       30.05F
BEATRICE       RAIN      46  46  99 NE15G21   29.95F
FALLS CITY     HVY RAIN  47  46  97 NE18G25   29.93F FOG
NEBRASKA CITY  RAIN      46  46 100 NE13      29.99F
PLATTSMOUTH    RAIN      46  43  91 NE12      30.02F
$$

NEZ044-045-051>053-067-291100-
OMAHA AREA

CITY           SKY/WX    TMP DP  RH WIND       PRES   REMARKS
OMAHA EPPLEY   RAIN      47  42  83 E14       30.05F
FREMONT        DRIZZLE   45  45  99 NE9       30.05F
MILLARD        RAIN      48  46  93 NE7       30.04F
OFFUTT AFB     RAIN      46  44  93 NE9       30.03F FOG
PLATTSMOUTH    RAIN      46  43  91 NE12      30.02F
WAHOO          RAIN      45  43  95 NE10      30.03F
$$



USA.gov is the U.S. government's official web portal to all federal, state and local government web resources and services.